Time,TemperatureF,DewpointF,PressureIn,WindDirection,WindDirectionDegrees,WindSpeedMPH,WindSpeedGustMPH,Humidity,HourlyPrecipIn,Conditions,Clouds,dailyrainin,SoftwareType,DateUTC
2013-01-10 00:02:00,35.5,30.2,30.43,South,177,1.0,2.0,81,0.00,,,0.00,Wunderground v.1.15,2013-01-10 06:02:00,
2013-01-10 00:08:00,35.6,30.3,30.43,South,177,1.0,3.0,81,0.00,,,0.00,Wunderground v.1.15,2013-01-10 06:08:00,
2013-01-10 00:14:00,35.7,30.4,30.43,South,177,1.0,1.0,81,0.00,,,0.00,Wunderground v.1.15,2013-01-10 06:14:00,
2013-01-10 00:20:00,35.5,29.9,30.43,South,177,1.0,1.0,80,0.00,,,0.00,Wunderground v.1.15,2013-01-10 06:20:00,
2013-01-10 00:25:00,35.5,30.2,30.42,South,177,1.0,2.0,81,0.00,,,0.00,Wunderground v.1.15,2013-01-10 06:25:00,
2013-01-10 00:31:00,35.6,30.0,30.42,South,177,0.0,6.0,80,0.00,,,0.00,Wunderground v.1.15,2013-01-10 06:31:00,
2013-01-10 00:37:00,35.6,30.0,30.42,South,177,0.0,6.0,80,0.00,,,0.00,Wunderground v.1.15,2013-01-10 06:37:00,
2013-01-10 00:43:00,35.7,30.1,30.42,South,177,0.0,6.0,80,0.00,,,0.00,Wunderground v.1.15,2013-01-10 06:43:00,
2013-01-10 00:49:00,35.7,30.1,30.42,South,177,0.0,6.0,80,0.00,,,0.00,Wunderground v.1.15,2013-01-10 06:49:00,
2013-01-10 00:55:00,35.8,30.2,30.42,South,177,0.0,6.0,80,0.00,,,0.00,Wunderground v.1.15,2013-01-10 06:55:00,
2013-01-10 01:01:00,35.9,30.3,30.42,South,177,0.0,6.0,80,0.00,,,0.00,Wunderground v.1.15,2013-01-10 07:01:00,
2013-01-10 01:07:00,35.7,30.1,30.42,South,177,1.0,6.0,80,0.00,,,0.00,Wunderground v.1.15,2013-01-10 07:07:00,
2013-01-10 01:13:00,35.8,29.9,30.42,South,177,1.0,6.0,79,0.00,,,0.00,Wunderground v.1.15,2013-01-10 07:13:00,
2013-01-10 01:19:00,35.7,29.8,30.42,South,177,1.0,6.0,79,0.00,,,0.00,Wunderground v.1.15,2013-01-10 07:19:00,
2013-01-10 01:25:00,35.6,29.7,30.42,South,177,1.0,6.0,79,0.00,,,0.00,Wunderground v.1.15,2013-01-10 07:25:00,
2013-01-10 01:30:00,35.5,29.6,30.42,South,177,1.0,1.0,79,0.00,,,0.00,Wunderground v.1.15,2013-01-10 07:30:00,
2013-01-10 01:36:00,35.3,29.4,30.42,South,177,1.0,6.0,79,0.00,,,0.00,Wunderground v.1.15,2013-01-10 07:36:00,
2013-01-10 01:42:00,35.2,29.6,30.42,South,177,1.0,6.0,80,0.00,,,0.00,Wunderground v.1.15,2013-01-10 07:42:00,
2013-01-10 01:48:00,35.5,29.9,30.42,South,177,2.0,6.0,80,0.00,,,0.00,Wunderground v.1.15,2013-01-10 07:48:00,
2013-01-10 01:53:00,35.6,29.7,30.42,South,177,2.0,6.0,79,0.00,,,0.00,Wunderground v.1.15,2013-01-10 07:53:00,
2013-01-10 01:59:00,35.7,29.8,30.42,South,177,1.0,6.0,79,0.00,,,0.00,Wunderground v.1.15,2013-01-10 07:59:00,
2013-01-10 02:05:00,35.7,29.8,30.41,South,177,1.0,6.0,79,0.00,,,0.00,Wunderground v.1.15,2013-01-10 08:05:00,
2013-01-10 02:11:00,35.3,29.1,30.41,South,177,1.0,6.0,78,0.00,,,0.00,Wunderground v.1.15,2013-01-10 08:11:00,
2013-01-10 02:17:00,34.9,29.0,30.41,South,177,0.0,6.0,79,0.00,,,0.00,Wunderground v.1.15,2013-01-10 08:17:00,
2013-01-10 02:23:00,34.9,29.4,30.41,South,177,1.0,6.0,80,0.00,,,0.00,Wunderground v.1.15,2013-01-10 08:23:00,
2013-01-10 02:29:00,35.1,29.6,30.41,South,177,1.0,6.0,80,0.00,,,0.00,Wunderground v.1.15,2013-01-10 08:29:00,
2013-01-10 02:34:00,35.3,29.4,30.41,South,177,1.0,6.0,79,0.00,,,0.00,Wunderground v.1.15,2013-01-10 08:34:00,
2013-01-10 02:40:00,35.5,29.6,30.41,SSE,153,2.0,6.0,79,0.00,,,0.00,Wunderground v.1.15,2013-01-10 08:40:00,
2013-01-10 02:46:00,35.7,29.5,30.40,SSE,153,3.0,6.0,78,0.00,,,0.00,Wunderground v.1.15,2013-01-10 08:46:00,
2013-01-10 02:52:00,35.9,29.7,30.40,SSE,153,3.0,6.0,78,0.00,,,0.00,Wunderground v.1.15,2013-01-10 08:52:00,
2013-01-10 02:57:00,35.9,29.7,30.40,SSE,153,3.0,6.0,78,0.00,,,0.00,Wunderground v.1.15,2013-01-10 08:57:00,
2013-01-10 03:03:00,36.0,29.8,30.39,SSE,153,2.0,6.0,78,0.00,,,0.00,Wunderground v.1.15,2013-01-10 09:03:00,
2013-01-10 03:09:00,36.1,29.6,30.39,SSE,153,1.0,6.0,77,0.00,,,0.00,Wunderground v.1.15,2013-01-10 09:09:00,
2013-01-10 03:15:00,36.0,29.8,30.39,SSE,153,2.0,6.0,78,0.00,,,0.00,Wunderground v.1.15,2013-01-10 09:15:00,
2013-01-10 03:21:00,35.9,29.7,30.38,SSE,153,2.0,6.0,78,0.00,,,0.00,Wunderground v.1.15,2013-01-10 09:21:00,
2013-01-10 03:27:00,35.7,29.8,30.38,SSE,153,1.0,6.0,79,0.00,,,0.00,Wunderground v.1.15,2013-01-10 09:27:00,
2013-01-10 03:33:00,35.3,29.7,30.38,SSE,153,1.0,6.0,80,0.00,,,0.00,Wunderground v.1.15,2013-01-10 09:33:00,
2013-01-10 03:38:00,35.0,29.8,30.37,SSE,153,1.0,6.0,81,0.00,,,0.00,Wunderground v.1.15,2013-01-10 09:38:00,
2013-01-10 03:44:00,34.8,29.9,30.37,SSE,153,1.0,6.0,82,0.00,,,0.00,Wunderground v.1.15,2013-01-10 09:44:00,
2013-01-10 03:50:00,35.0,30.1,30.37,SSE,153,1.0,6.0,82,0.00,,,0.00,Wunderground v.1.15,2013-01-10 09:50:00,
2013-01-10 03:56:00,34.9,30.0,30.37,SSE,153,1.0,6.0,82,0.00,,,0.00,Wunderground v.1.15,2013-01-10 09:56:00,
2013-01-10 04:01:00,35.0,30.1,30.37,SE,138,2.0,6.0,82,0.00,,,0.00,Wunderground v.1.15,2013-01-10 10:01:00,
2013-01-10 04:07:00,35.1,30.2,30.37,SSE,165,3.0,6.0,82,0.00,,,0.00,Wunderground v.1.15,2013-01-10 10:07:00,
2013-01-10 04:13:00,35.3,30.4,30.36,SSE,164,3.0,6.0,82,0.00,,,0.00,Wunderground v.1.15,2013-01-10 10:13:00,
2013-01-10 04:20:00,35.4,30.5,30.36,South,175,2.0,6.0,82,0.00,,,0.00,Wunderground v.1.15,2013-01-10 10:20:00,
2013-01-10 04:26:00,35.8,30.5,30.35,SE,146,2.0,6.0,81,0.00,,,0.00,Wunderground v.1.15,2013-01-10 10:26:00,
2013-01-10 04:32:00,36.1,30.5,30.35,SE,144,4.0,6.0,80,0.00,,,0.00,Wunderground v.1.15,2013-01-10 10:32:00,
2013-01-10 04:38:00,36.2,30.6,30.35,SE,140,5.0,7.0,80,0.00,,,0.00,Wunderground v.1.15,2013-01-10 10:38:00,
2013-01-10 04:44:00,36.3,30.7,30.34,SE,146,6.0,6.0,80,0.00,,,0.00,Wunderground v.1.15,2013-01-10 10:44:00,
2013-01-10 04:49:00,36.3,30.7,30.35,SE,139,6.0,6.0,80,0.00,,,0.00,Wunderground v.1.15,2013-01-10 10:49:00,
2013-01-10 04:55:00,36.3,30.7,30.34,SE,146,6.0,6.0,80,0.00,,,0.00,Wunderground v.1.15,2013-01-10 10:55:00,
2013-01-10 05:01:00,36.3,30.7,30.34,SE,138,5.0,6.0,80,0.00,,,0.00,Wunderground v.1.15,2013-01-10 11:01:00,
2013-01-10 05:07:00,36.4,30.8,30.34,SSE,155,5.0,6.0,80,0.00,,,0.00,Wunderground v.1.15,2013-01-10 11:07:00,
2013-01-10 05:12:00,36.6,30.7,30.34,SE,146,4.0,6.0,79,0.00,,,0.00,Wunderground v.1.15,2013-01-10 11:12:00,
2013-01-10 05:18:00,36.6,30.7,30.33,SSE,150,4.0,6.0,79,0.00,,,0.00,Wunderground v.1.15,2013-01-10 11:18:00,
2013-01-10 05:24:00,36.4,30.8,30.33,SSE,149,5.0,6.0,80,0.00,,,0.00,Wunderground v.1.15,2013-01-10 11:24:00,
2013-01-10 05:30:00,36.3,30.7,30.33,SE,144,6.0,8.0,80,0.00,,,0.00,Wunderground v.1.15,2013-01-10 11:30:00,
2013-01-10 05:36:00,36.4,30.8,30.33,SE,138,6.0,8.0,80,0.00,,,0.00,Wunderground v.1.15,2013-01-10 11:36:00,
2013-01-10 05:42:00,36.7,31.1,30.32,SE,142,6.0,9.0,80,0.00,,,0.00,Wunderground v.1.15,2013-01-10 11:42:00,
2013-01-10 05:48:00,37.0,31.1,30.32,SE,146,7.0,9.0,79,0.00,,,0.00,Wunderground v.1.15,2013-01-10 11:48:00,
2013-01-10 05:53:00,37.2,31.0,30.32,SE,141,7.0,7.0,78,0.00,,,0.00,Wunderground v.1.15,2013-01-10 11:53:00,
2013-01-10 05:59:00,37.3,31.1,30.32,SE,142,7.0,7.0,78,0.00,,,0.00,Wunderground v.1.15,2013-01-10 11:59:00,
2013-01-10 06:04:00,37.4,30.8,30.32,SSE,150,7.0,8.0,77,0.00,,,0.00,Wunderground v.1.15,2013-01-10 12:04:00,
2013-01-10 06:10:00,37.3,31.1,30.31,SSE,153,8.0,8.0,78,0.00,,,0.00,Wunderground v.1.15,2013-01-10 12:10:00,
2013-01-10 06:16:00,37.2,31.0,30.31,SE,131,7.0,8.0,78,0.00,,,0.00,Wunderground v.1.15,2013-01-10 12:16:00,
2013-01-10 06:22:00,37.3,31.1,30.31,SE,142,6.0,7.0,78,0.00,,,0.00,Wunderground v.1.15,2013-01-10 12:22:00,
2013-01-10 06:28:00,37.4,30.8,30.30,ESE,122,6.0,8.0,77,0.00,,,0.00,Wunderground v.1.15,2013-01-10 12:28:00,
2013-01-10 06:34:00,37.5,30.6,30.30,SE,139,6.0,7.0,76,0.00,,,0.00,Wunderground v.1.15,2013-01-10 12:34:00,
2013-01-10 06:40:00,37.7,30.5,30.30,SE,144,6.0,7.0,75,0.00,,,0.00,Wunderground v.1.15,2013-01-10 12:40:00,
2013-01-10 06:45:00,37.9,30.7,30.29,ESE,117,7.0,9.0,75,0.00,,,0.00,Wunderground v.1.15,2013-01-10 12:45:00,
2013-01-10 06:51:00,37.9,30.7,30.29,SE,138,7.0,9.0,75,0.00,,,0.00,Wunderground v.1.15,2013-01-10 12:51:00,
2013-01-10 06:57:00,37.9,30.4,30.29,SE,142,7.0,10.0,74,0.00,,,0.00,Wunderground v.1.15,2013-01-10 12:57:00,
2013-01-10 07:02:00,38.1,30.5,30.29,SSE,153,7.0,9.0,74,0.00,,,0.00,Wunderground v.1.15,2013-01-10 13:02:00,
2013-01-10 07:08:00,38.2,30.6,30.28,SE,141,8.0,9.0,74,0.00,,,0.00,Wunderground v.1.15,2013-01-10 13:08:00,
2013-01-10 07:13:00,38.4,30.2,30.28,SE,132,8.0,11.0,72,0.00,,,0.00,Wunderground v.1.15,2013-01-10 13:13:00,
2013-01-10 07:19:00,38.5,30.3,30.29,SE,146,9.0,11.0,72,0.00,,,0.00,Wunderground v.1.15,2013-01-10 13:19:00,
2013-01-10 07:25:00,38.4,30.2,30.28,SSE,153,8.0,9.0,72,0.00,,,0.00,Wunderground v.1.15,2013-01-10 13:25:00,
2013-01-10 07:31:00,38.6,30.0,30.28,SE,130,8.0,10.0,71,0.00,,,0.00,Wunderground v.1.15,2013-01-10 13:31:00,
2013-01-10 07:36:00,38.5,30.3,30.27,SE,141,8.0,10.0,72,0.00,,,0.00,Wunderground v.1.15,2013-01-10 13:36:00,
2013-01-10 07:42:00,38.4,29.8,30.27,SE,142,7.0,7.0,71,0.00,,,0.00,Wunderground v.1.15,2013-01-10 13:42:00,
2013-01-10 07:48:00,38.4,29.8,30.27,SE,143,7.0,8.0,71,0.00,,,0.00,Wunderground v.1.15,2013-01-10 13:48:00,
2013-01-10 07:54:00,38.4,30.2,30.27,SE,145,6.0,7.0,72,0.00,,,0.00,Wunderground v.1.15,2013-01-10 13:54:00,
2013-01-10 07:59:00,38.4,30.2,30.27,SE,138,6.0,7.0,72,0.00,,,0.00,Wunderground v.1.15,2013-01-10 13:59:00,
2013-01-10 08:05:00,38.4,30.2,30.27,SE,144,6.0,8.0,72,0.00,,,0.00,Wunderground v.1.15,2013-01-10 14:05:00,
2013-01-10 08:11:00,38.3,30.1,30.26,SE,138,6.0,6.0,72,0.00,,,0.00,Wunderground v.1.15,2013-01-10 14:11:00,
2013-01-10 08:17:00,38.4,30.2,30.27,SE,142,6.0,7.0,72,0.00,,,0.00,Wunderground v.1.15,2013-01-10 14:17:00,
2013-01-10 08:23:00,38.5,30.3,30.26,SE,142,5.0,6.0,72,0.00,,,0.00,Wunderground v.1.15,2013-01-10 14:23:00,
2013-01-10 08:29:00,38.6,30.4,30.26,SSE,148,4.0,6.0,72,0.00,,,0.00,Wunderground v.1.15,2013-01-10 14:29:00,
2013-01-10 08:35:00,38.8,30.2,30.26,SSE,163,4.0,6.0,71,0.00,,,0.00,Wunderground v.1.15,2013-01-10 14:35:00,
2013-01-10 08:41:00,39.0,30.4,30.25,SSE,159,3.0,6.0,71,0.00,,,0.00,Wunderground v.1.15,2013-01-10 14:41:00,
2013-01-10 08:47:00,39.2,30.6,30.25,SE,131,5.0,7.0,71,0.00,,,0.00,Wunderground v.1.15,2013-01-10 14:47:00,
2013-01-10 08:53:00,39.5,30.5,30.25,SSE,148,6.0,7.0,70,0.00,,,0.00,Wunderground v.1.15,2013-01-10 14:53:00,
2013-01-10 08:59:00,39.9,30.5,30.24,SSE,165,6.0,10.0,69,0.00,,,0.00,Wunderground v.1.15,2013-01-10 14:59:00,
2013-01-10 09:04:00,40.2,30.5,30.24,SE,146,7.0,10.0,68,0.00,,,0.00,Wunderground v.1.15,2013-01-10 15:04:00,
2013-01-10 09:10:00,40.6,30.5,30.23,SE,144,7.0,10.0,67,0.00,,,0.00,Wunderground v.1.15,2013-01-10 15:10:00,
2013-01-10 09:16:00,40.6,30.5,30.23,SE,140,8.0,10.0,67,0.00,,,0.00,Wunderground v.1.15,2013-01-10 15:16:00,
2013-01-10 09:21:00,40.8,30.3,30.22,SE,144,7.0,8.0,66,0.00,,,0.00,Wunderground v.1.15,2013-01-10 15:21:00,
2013-01-10 09:27:00,40.7,30.6,30.22,ESE,119,7.0,10.0,67,0.00,,,0.00,Wunderground v.1.15,2013-01-10 15:27:00,
2013-01-10 09:33:00,40.7,30.6,30.22,SE,145,7.0,8.0,67,0.00,,,0.00,Wunderground v.1.15,2013-01-10 15:33:00,
2013-01-10 09:39:00,40.8,30.7,30.22,SE,128,6.0,9.0,67,0.00,,,0.00,Wunderground v.1.15,2013-01-10 15:39:00,
2013-01-10 09:44:00,40.9,30.4,30.21,SSE,161,7.0,8.0,66,0.00,,,0.00,Wunderground v.1.15,2013-01-10 15:44:00,
2013-01-10 09:50:00,41.0,30.5,30.22,SSE,163,7.0,8.0,66,0.00,,,0.00,Wunderground v.1.15,2013-01-10 15:50:00,
2013-01-10 09:56:00,40.6,31.6,30.22,SSE,163,6.0,8.0,70,0.00,,,0.00,Wunderground v.1.15,2013-01-10 15:56:00,
2013-01-10 10:01:00,40.0,31.7,30.21,SE,140,6.0,6.0,72,0.00,,,0.00,Wunderground v.1.15,2013-01-10 16:01:00,
2013-01-10 10:07:00,39.5,31.6,30.21,SSE,168,6.0,6.0,73,0.00,,,0.00,Wunderground v.1.15,2013-01-10 16:07:00,
2013-01-10 10:12:00,39.5,31.9,30.20,SSE,155,6.0,8.0,74,0.00,,,0.00,Wunderground v.1.15,2013-01-10 16:12:00,
2013-01-10 10:18:00,39.6,32.3,30.20,South,184,6.0,10.0,75,0.00,,,0.00,Wunderground v.1.15,2013-01-10 16:18:00,
2013-01-10 10:24:00,39.3,33.0,30.20,SSE,157,6.0,11.0,78,0.00,,,0.00,Wunderground v.1.15,2013-01-10 16:24:00,
2013-01-10 10:29:00,38.9,33.3,30.19,SSE,165,6.0,11.0,80,0.00,,,0.00,Wunderground v.1.15,2013-01-10 16:29:00,
2013-01-10 10:35:00,38.5,33.8,30.19,South,185,6.0,8.0,83,0.00,,,0.01,Wunderground v.1.15,2013-01-10 16:35:00,
2013-01-10 10:41:00,38.2,33.8,30.19,SSE,153,5.0,6.0,84,0.00,,,0.01,Wunderground v.1.15,2013-01-10 16:41:00,
2013-01-10 10:47:00,38.2,34.1,30.18,ESE,122,5.0,6.0,85,0.00,,,0.01,Wunderground v.1.15,2013-01-10 16:47:00,
2013-01-10 10:53:00,38.2,34.4,30.18,SSE,161,6.0,8.0,86,0.00,,,0.01,Wunderground v.1.15,2013-01-10 16:53:00,
2013-01-10 10:58:00,38.1,34.3,30.17,SSE,150,6.0,8.0,86,0.00,,,0.01,Wunderground v.1.15,2013-01-10 16:58:00,
2013-01-10 11:04:00,38.0,34.8,30.16,SE,144,6.0,8.0,88,0.00,,,0.02,Wunderground v.1.15,2013-01-10 17:04:00,
2013-01-10 11:11:00,37.8,34.8,30.15,SE,142,7.0,7.0,89,0.08,,,0.03,Wunderground v.1.15,2013-01-10 17:11:00,
2013-01-10 11:17:00,37.8,35.1,30.14,SE,146,7.0,10.0,90,0.08,,,0.03,Wunderground v.1.15,2013-01-10 17:17:00,
2013-01-10 11:23:00,37.8,35.4,30.13,SE,133,8.0,12.0,91,0.07,,,0.04,Wunderground v.1.15,2013-01-10 17:23:00,
2013-01-10 11:29:00,37.9,35.8,30.11,SE,135,9.0,13.0,92,0.06,,,0.05,Wunderground v.1.15,2013-01-10 17:29:00,
2013-01-10 11:36:00,38.0,35.9,30.10,SE,143,8.0,9.0,92,0.06,,,0.05,Wunderground v.1.15,2013-01-10 17:36:00,
2013-01-10 11:42:00,38.0,36.2,30.09,SE,140,8.0,9.0,93,0.04,,,0.05,Wunderground v.1.15,2013-01-10 17:42:00,
2013-01-10 11:48:00,38.2,36.4,30.08,South,178,8.0,10.0,93,0.00,,,0.05,Wunderground v.1.15,2013-01-10 17:48:00,
2013-01-10 11:54:00,38.4,36.6,30.08,SSE,167,8.0,10.0,93,0.00,,,0.05,Wunderground v.1.15,2013-01-10 17:54:00,
2013-01-10 12:00:00,38.5,36.7,30.07,SSE,152,6.0,6.0,93,0.00,,,0.05,Wunderground v.1.15,2013-01-10 18:00:00,
2013-01-10 12:05:00,38.5,36.7,30.07,South,180,6.0,7.0,93,0.00,,,0.05,Wunderground v.1.15,2013-01-10 18:05:00,
2013-01-10 12:10:00,38.6,36.8,30.07,SSE,150,6.0,6.0,93,0.00,,,0.05,Wunderground v.1.15,2013-01-10 18:10:00,
2013-01-10 12:16:00,38.6,36.8,30.06,SE,145,5.0,7.0,93,0.00,,,0.05,Wunderground v.1.15,2013-01-10 18:16:00,
2013-01-10 12:22:00,38.7,37.1,30.06,South,171,7.0,9.0,94,0.00,,,0.05,Wunderground v.1.15,2013-01-10 18:22:00,
2013-01-10 12:27:00,38.7,37.1,30.05,South,173,7.0,11.0,94,0.00,,,0.05,Wunderground v.1.15,2013-01-10 18:27:00,
2013-01-10 12:33:00,38.9,37.3,30.04,SSE,161,7.0,11.0,94,0.00,,,0.05,Wunderground v.1.15,2013-01-10 18:33:00,
2013-01-10 12:39:00,39.1,37.5,30.04,South,169,8.0,11.0,94,0.00,,,0.05,Wunderground v.1.15,2013-01-10 18:39:00,
2013-01-10 12:45:00,39.2,37.6,30.04,South,184,8.0,13.0,94,0.00,,,0.05,Wunderground v.1.15,2013-01-10 18:45:00,
2013-01-10 12:50:00,39.3,37.7,30.04,SSE,166,6.0,7.0,94,0.00,,,0.05,Wunderground v.1.15,2013-01-10 18:50:00,
2013-01-10 12:56:00,39.4,37.8,30.04,South,191,5.0,7.0,94,0.00,,,0.05,Wunderground v.1.15,2013-01-10 18:56:00,
2013-01-10 13:02:00,39.4,37.8,30.04,SSW,199,5.0,6.0,94,0.00,,,0.05,Wunderground v.1.15,2013-01-10 19:02:00,
2013-01-10 13:07:00,39.5,37.9,30.04,SW,233,4.0,6.0,94,0.00,,,0.05,Wunderground v.1.15,2013-01-10 19:07:00,
2013-01-10 13:13:00,39.5,37.9,30.03,West,265,3.0,6.0,94,0.00,,,0.05,Wunderground v.1.15,2013-01-10 19:13:00,
2013-01-10 13:18:00,39.6,38.0,30.03,South,189,3.0,6.0,94,0.00,,,0.05,Wunderground v.1.15,2013-01-10 19:18:00,
2013-01-10 13:24:00,39.7,38.1,30.02,South,171,3.0,6.0,94,0.00,,,0.05,Wunderground v.1.15,2013-01-10 19:24:00,
2013-01-10 13:30:00,39.9,38.3,30.02,South,175,4.0,4.0,94,0.00,,,0.05,Wunderground v.1.15,2013-01-10 19:30:00,
2013-01-10 13:35:00,40.1,38.8,30.02,South,186,4.0,6.0,95,0.00,,,0.05,Wunderground v.1.15,2013-01-10 19:35:00,
2013-01-10 13:41:00,40.1,38.8,30.01,SSE,165,3.0,4.0,95,0.00,,,0.05,Wunderground v.1.15,2013-01-10 19:41:00,
2013-01-10 13:47:00,40.3,39.0,30.01,SSW,195,4.0,7.0,95,0.00,,,0.05,Wunderground v.1.15,2013-01-10 19:47:00,
2013-01-10 13:53:00,40.4,39.1,30.01,SSW,193,4.0,6.0,95,0.00,,,0.05,Wunderground v.1.15,2013-01-10 19:53:00,
2013-01-10 13:58:00,40.4,39.1,30.00,SSE,167,5.0,7.0,95,0.00,,,0.05,Wunderground v.1.15,2013-01-10 19:58:00,
2013-01-10 14:04:00,40.4,39.1,29.99,SE,146,6.0,8.0,95,0.00,,,0.05,Wunderground v.1.15,2013-01-10 20:04:00,
2013-01-10 14:10:00,40.5,39.2,29.99,South,186,6.0,7.0,95,0.00,,,0.05,Wunderground v.1.15,2013-01-10 20:10:00,
2013-01-10 14:15:00,40.6,39.3,30.00,West,262,6.0,7.0,95,0.00,,,0.05,Wunderground v.1.15,2013-01-10 20:15:00,
2013-01-10 14:21:00,40.6,39.3,29.99,SSE,168,4.0,14.0,95,0.00,,,0.05,Wunderground v.1.15,2013-01-10 20:21:00,
2013-01-10 14:26:00,40.6,39.3,30.00,South,188,4.0,14.0,95,0.00,,,0.05,Wunderground v.1.15,2013-01-10 20:26:00,
2013-01-10 14:32:00,40.6,39.3,30.00,SW,226,4.0,6.0,95,0.00,,,0.05,Wunderground v.1.15,2013-01-10 20:32:00,
2013-01-10 14:37:00,40.6,39.3,29.99,South,178,4.0,7.0,95,0.00,,,0.05,Wunderground v.1.15,2013-01-10 20:37:00,
2013-01-10 14:43:00,40.6,39.3,29.99,South,182,4.0,6.0,95,0.00,,,0.05,Wunderground v.1.15,2013-01-10 20:43:00,
2013-01-10 14:49:00,40.8,39.5,29.99,South,186,4.0,7.0,95,0.00,,,0.05,Wunderground v.1.15,2013-01-10 20:49:00,
2013-01-10 14:54:00,40.8,39.5,29.99,South,175,4.0,6.0,95,0.00,,,0.05,Wunderground v.1.15,2013-01-10 20:54:00,
2013-01-10 15:00:00,40.9,39.6,29.98,South,173,4.0,8.0,95,0.00,,,0.05,Wunderground v.1.15,2013-01-10 21:00:00,
2013-01-10 15:06:00,41.0,39.7,29.97,South,186,5.0,8.0,95,0.00,,,0.05,Wunderground v.1.15,2013-01-10 21:06:00,
2013-01-10 15:11:00,41.1,39.8,29.97,South,175,5.0,7.0,95,0.00,,,0.05,Wunderground v.1.15,2013-01-10 21:11:00,
2013-01-10 15:18:00,41.2,40.1,29.97,SSE,158,3.0,7.0,96,0.00,,,0.05,Wunderground v.1.15,2013-01-10 21:18:00,
2013-01-10 15:24:00,41.2,40.1,29.97,SSE,155,2.0,6.0,96,0.00,,,0.05,Wunderground v.1.15,2013-01-10 21:24:00,
2013-01-10 15:30:00,41.0,39.7,29.96,SE,146,3.0,6.0,95,0.00,,,0.05,Wunderground v.1.15,2013-01-10 21:30:00,
2013-01-10 15:35:00,40.8,39.7,29.96,SSE,152,4.0,6.0,96,0.00,,,0.05,Wunderground v.1.15,2013-01-10 21:35:00,
2013-01-10 15:41:00,40.7,39.6,29.96,SSE,150,5.0,6.0,96,0.00,,,0.05,Wunderground v.1.15,2013-01-10 21:41:00,
2013-01-10 15:46:00,40.7,39.6,29.96,SE,145,4.0,6.0,96,0.00,,,0.05,Wunderground v.1.15,2013-01-10 21:46:00,
2013-01-10 15:52:00,40.7,39.6,29.96,SE,146,5.0,7.0,96,0.00,,,0.05,Wunderground v.1.15,2013-01-10 21:52:00,
2013-01-10 15:57:00,40.6,39.5,29.95,SSE,150,6.0,7.0,96,0.00,,,0.05,Wunderground v.1.15,2013-01-10 21:57:00,
2013-01-10 16:03:00,40.6,39.5,29.95,SE,132,6.0,8.0,96,0.00,,,0.05,Wunderground v.1.15,2013-01-10 22:03:00,
2013-01-10 16:09:00,40.7,39.6,29.95,SSE,167,4.0,8.0,96,0.00,,,0.05,Wunderground v.1.15,2013-01-10 22:09:00,
2013-01-10 16:16:00,40.7,39.6,29.94,SE,144,4.0,7.0,96,0.00,,,0.05,Wunderground v.1.15,2013-01-10 22:16:00,
2013-01-10 16:22:00,40.8,39.7,29.93,SSE,150,6.0,7.0,96,0.00,,,0.05,Wunderground v.1.15,2013-01-10 22:22:00,
2013-01-10 16:28:00,40.9,39.8,29.93,SSE,160,5.0,7.0,96,0.00,,,0.05,Wunderground v.1.15,2013-01-10 22:28:00,
2013-01-10 16:34:00,40.9,39.8,29.94,SSE,161,4.0,6.0,96,0.00,,,0.05,Wunderground v.1.15,2013-01-10 22:34:00,
2013-01-10 16:39:00,40.9,39.8,29.94,South,170,4.0,6.0,96,0.00,,,0.06,Wunderground v.1.15,2013-01-10 22:39:00,
2013-01-10 16:45:00,40.8,39.7,29.94,South,179,2.0,6.0,96,0.00,,,0.06,Wunderground v.1.15,2013-01-10 22:45:00,
2013-01-10 16:50:00,40.9,39.8,29.93,South,180,1.0,6.0,96,0.00,,,0.06,Wunderground v.1.15,2013-01-10 22:50:00,
2013-01-10 16:56:00,41.1,40.0,29.93,SSW,195,2.0,6.0,96,0.05,,,0.07,Wunderground v.1.15,2013-01-10 22:56:00,
2013-01-10 17:02:00,41.2,40.1,29.92,South,189,1.0,6.0,96,0.05,,,0.07,Wunderground v.1.15,2013-01-10 23:02:00,
2013-01-10 17:07:00,41.5,40.4,29.92,South,176,2.0,6.0,96,0.04,,,0.07,Wunderground v.1.15,2013-01-10 23:07:00,
2013-01-10 17:12:00,41.6,40.5,29.92,SSE,161,2.0,6.0,96,0.00,,,0.08,Wunderground v.1.15,2013-01-10 23:12:00,
2013-01-10 17:18:00,41.8,40.7,29.92,South,178,2.0,6.0,96,0.00,,,0.08,Wunderground v.1.15,2013-01-10 23:18:00,
2013-01-10 17:25:00,42.2,41.1,29.92,SSE,167,3.0,6.0,96,0.06,,,0.09,Wunderground v.1.15,2013-01-10 23:25:00,
2013-01-10 17:31:00,42.3,41.2,29.91,SSE,165,3.0,6.0,96,0.06,,,0.09,Wunderground v.1.15,2013-01-10 23:31:00,
2013-01-10 17:36:00,42.5,41.4,29.92,SSW,211,3.0,6.0,96,0.04,,,0.09,Wunderground v.1.15,2013-01-10 23:36:00,
2013-01-10 17:42:00,42.8,42.0,29.91,SSW,196,2.0,6.0,97,0.00,,,0.10,Wunderground v.1.15,2013-01-10 23:42:00,
2013-01-10 17:48:00,42.9,42.1,29.91,SW,214,1.0,6.0,97,0.34,,,0.12,Wunderground v.1.15,2013-01-10 23:48:00,
2013-01-10 17:54:00,43.2,42.1,29.91,SSW,192,1.0,6.0,96,0.23,,,0.14,Wunderground v.1.15,2013-01-10 23:54:00,
2013-01-10 17:59:00,43.2,42.1,29.90,SSW,200,1.0,6.0,96,0.13,,,0.15,Wunderground v.1.15,2013-01-10 23:59:00,
2013-01-10 18:05:00,43.2,42.1,29.91,SSW,211,1.0,6.0,96,0.06,,,0.16,Wunderground v.1.15,2013-01-11 00:05:00,
2013-01-10 18:11:00,43.3,42.2,29.91,South,190,3.0,6.0,96,0.55,,,0.18,Wunderground v.1.15,2013-01-11 00:11:00,
2013-01-10 18:17:00,43.5,42.7,29.91,SSW,195,3.0,6.0,97,0.57,,,0.23,Wunderground v.1.15,2013-01-11 00:17:00,
2013-01-10 18:22:00,43.7,42.9,29.91,SSW,196,2.0,6.0,97,0.24,,,0.26,Wunderground v.1.15,2013-01-11 00:22:00,
2013-01-10 18:28:00,43.7,42.9,29.90,SW,216,2.0,6.0,97,0.12,,,0.28,Wunderground v.1.15,2013-01-11 00:28:00,
2013-01-10 18:34:00,43.7,42.6,29.90,SSW,204,1.0,6.0,96,0.19,,,0.29,Wunderground v.1.15,2013-01-11 00:34:00,
2013-01-10 18:40:00,43.7,42.9,29.90,SSW,198,1.0,1.0,97,0.10,,,0.30,Wunderground v.1.15,2013-01-11 00:40:00,
2013-01-10 18:45:00,43.7,42.9,29.89,South,187,1.0,6.0,97,0.12,,,0.31,Wunderground v.1.15,2013-01-11 00:45:00,
2013-01-10 18:52:00,43.6,42.8,29.89,SSW,193,1.0,6.0,97,0.17,,,0.34,Wunderground v.1.15,2013-01-11 00:52:00,
2013-01-10 18:58:00,43.6,42.8,29.89,South,188,1.0,6.0,97,0.19,,,0.36,Wunderground v.1.15,2013-01-11 00:58:00,
2013-01-10 19:04:00,43.6,42.8,29.89,South,183,1.0,6.0,97,0.34,,,0.39,Wunderground v.1.15,2013-01-11 01:04:00,
2013-01-10 19:09:00,43.6,42.8,29.89,SW,223,1.0,6.0,97,0.23,,,0.42,Wunderground v.1.15,2013-01-11 01:09:00,
2013-01-10 19:15:00,43.6,42.8,29.88,SSE,163,2.0,6.0,97,0.65,,,0.47,Wunderground v.1.15,2013-01-11 01:15:00,
2013-01-10 19:21:00,43.6,42.8,29.88,SSW,205,2.0,6.0,97,0.10,,,0.47,Wunderground v.1.15,2013-01-11 01:21:00,
2013-01-10 19:26:00,43.6,42.8,29.88,SSW,192,1.0,6.0,97,0.05,,,0.47,Wunderground v.1.15,2013-01-11 01:26:00,
2013-01-10 19:32:00,43.7,42.9,29.87,SSE,159,1.0,6.0,97,0.00,,,0.47,Wunderground v.1.15,2013-01-11 01:32:00,
2013-01-10 19:39:00,43.6,42.8,29.87,South,187,1.0,6.0,97,0.00,,,0.47,Wunderground v.1.15,2013-01-11 01:39:00,
2013-01-10 19:45:00,43.4,42.6,29.87,South,188,1.0,6.0,97,0.00,,,0.47,Wunderground v.1.15,2013-01-11 01:45:00,
2013-01-10 19:52:00,43.5,42.7,29.87,South,190,1.0,6.0,97,0.00,,,0.47,Wunderground v.1.15,2013-01-11 01:52:00,
2013-01-10 19:57:00,43.5,42.7,29.87,South,172,1.0,6.0,97,0.00,,,0.47,Wunderground v.1.15,2013-01-11 01:57:00,
2013-01-10 20:03:00,43.6,42.8,29.86,SSE,167,1.0,6.0,97,0.00,,,0.47,Wunderground v.1.15,2013-01-11 02:03:00,
2013-01-10 20:09:00,43.5,42.7,29.86,South,171,1.0,6.0,97,0.00,,,0.48,Wunderground v.1.15,2013-01-11 02:09:00,
2013-01-10 20:16:00,43.5,42.7,29.86,SSE,167,1.0,6.0,97,0.08,,,0.49,Wunderground v.1.15,2013-01-11 02:16:00,
2013-01-10 20:22:00,43.6,42.8,29.86,SSE,166,1.0,6.0,97,0.07,,,0.49,Wunderground v.1.15,2013-01-11 02:22:00,
2013-01-10 20:28:00,43.6,42.8,29.85,SSE,166,0.0,6.0,97,0.04,,,0.49,Wunderground v.1.15,2013-01-11 02:28:00,
2013-01-10 20:34:00,43.6,42.8,29.84,SE,146,2.0,6.0,97,0.00,,,0.49,Wunderground v.1.15,2013-01-11 02:34:00,
2013-01-10 20:39:00,43.7,42.9,29.84,South,174,3.0,6.0,97,0.23,,,0.51,Wunderground v.1.15,2013-01-11 02:39:00,
2013-01-10 20:45:00,43.8,43.0,29.84,SSE,168,2.0,6.0,97,0.08,,,0.51,Wunderground v.1.15,2013-01-11 02:45:00,
2013-01-10 20:53:00,44.0,43.2,29.83,South,191,2.0,6.0,97,0.04,,,0.51,Wunderground v.1.15,2013-01-11 02:53:00,
2013-01-10 20:58:00,44.1,43.3,29.83,SSE,165,2.0,6.0,97,0.00,,,0.51,Wunderground v.1.15,2013-01-11 02:58:00,
2013-01-10 21:04:00,44.3,43.5,29.82,SSE,165,2.0,6.0,97,0.00,,,0.51,Wunderground v.1.15,2013-01-11 03:04:00,
2013-01-10 21:09:00,44.5,43.7,29.82,South,189,2.0,6.0,97,0.00,,,0.51,Wunderground v.1.15,2013-01-11 03:09:00,
2013-01-10 21:15:00,44.6,43.8,29.82,SSE,150,2.0,6.0,97,0.00,,,0.51,Wunderground v.1.15,2013-01-11 03:15:00,
2013-01-10 21:21:00,44.6,43.8,29.82,South,186,2.0,6.0,97,0.00,,,0.51,Wunderground v.1.15,2013-01-11 03:21:00,
2013-01-10 21:27:00,44.6,43.8,29.82,SSW,195,1.0,6.0,97,0.00,,,0.51,Wunderground v.1.15,2013-01-11 03:27:00,
2013-01-10 21:32:00,44.7,43.9,29.81,SSW,205,1.0,6.0,97,0.00,,,0.51,Wunderground v.1.15,2013-01-11 03:32:00,
2013-01-10 21:38:00,44.8,44.0,29.81,SSW,207,2.0,6.0,97,0.00,,,0.51,Wunderground v.1.15,2013-01-11 03:38:00,
2013-01-10 21:44:00,44.7,43.9,29.80,SSW,194,1.0,6.0,97,0.00,,,0.51,Wunderground v.1.15,2013-01-11 03:44:00,
2013-01-10 21:49:00,44.6,43.8,29.80,South,172,2.0,6.0,97,0.00,,,0.51,Wunderground v.1.15,2013-01-11 03:49:00,
2013-01-10 21:55:00,44.5,43.7,29.79,SSE,154,2.0,6.0,97,0.00,,,0.51,Wunderground v.1.15,2013-01-11 03:55:00,
2013-01-10 22:01:00,44.4,43.6,29.78,SSE,154,2.0,6.0,97,0.00,,,0.51,Wunderground v.1.15,2013-01-11 04:01:00,
2013-01-10 22:07:00,44.1,43.3,29.78,SSE,165,3.0,6.0,97,0.00,,,0.51,Wunderground v.1.15,2013-01-11 04:07:00,
2013-01-10 22:12:00,44.1,43.3,29.77,SSE,147,4.0,6.0,97,0.00,,,0.51,Wunderground v.1.15,2013-01-11 04:12:00,
2013-01-10 22:18:00,44.0,43.2,29.78,SE,144,5.0,6.0,97,0.00,,,0.51,Wunderground v.1.15,2013-01-11 04:18:00,
2013-01-10 22:24:00,43.9,43.1,29.78,SSE,154,4.0,6.0,97,0.00,,,0.51,Wunderground v.1.15,2013-01-11 04:24:00,
2013-01-10 22:30:00,44.0,43.2,29.78,SSE,163,2.0,2.0,97,0.00,,,0.51,Wunderground v.1.15,2013-01-11 04:30:00,
2013-01-10 22:35:00,43.9,43.1,29.79,SSE,160,2.0,6.0,97,0.00,,,0.51,Wunderground v.1.15,2013-01-11 04:35:00,
2013-01-10 22:41:00,43.7,42.9,29.78,SSE,160,1.0,6.0,97,0.00,,,0.51,Wunderground v.1.15,2013-01-11 04:41:00,
2013-01-10 22:47:00,43.5,42.7,29.79,West,273,1.0,6.0,97,0.00,,,0.51,Wunderground v.1.15,2013-01-11 04:47:00,
2013-01-10 22:53:00,43.7,42.9,29.79,West,273,2.0,6.0,97,0.00,,,0.51,Wunderground v.1.15,2013-01-11 04:53:00,
2013-01-10 22:58:00,44.2,43.4,29.79,West,273,2.0,6.0,97,0.00,,,0.51,Wunderground v.1.15,2013-01-11 04:58:00,
2013-01-10 23:03:00,44.4,43.6,29.78,West,259,4.0,6.0,97,0.00,,,0.51,Wunderground v.1.15,2013-01-11 05:03:00,
2013-01-10 23:04:00,44.4,43.6,29.78,WSW,238,4.0,6.0,97,0.00,,,0.51,Wunderground v.1.15,2013-01-11 05:04:00,
2013-01-10 23:10:00,44.3,43.5,29.78,SSW,213,3.0,3.0,97,0.00,,,0.51,Wunderground v.1.15,2013-01-11 05:10:00,
2013-01-10 23:13:00,44.3,43.5,29.78,SSW,213,2.0,6.0,97,0.00,,,0.51,Wunderground v.1.15,2013-01-11 05:13:00,
2013-01-10 23:18:00,44.3,43.5,29.77,SSE,165,1.0,6.0,97,0.00,,,0.51,Wunderground v.1.15,2013-01-11 05:18:00,
2013-01-10 23:24:00,44.1,43.3,29.77,SSE,163,1.0,6.0,97,0.00,,,0.51,Wunderground v.1.15,2013-01-11 05:24:00,
2013-01-10 23:26:00,44.1,43.3,29.76,SSE,163,1.0,6.0,97,0.00,,,0.51,Wunderground v.1.15,2013-01-11 05:26:00,
2013-01-10 23:32:00,43.9,43.1,29.76,SSE,164,0.0,6.0,97,0.00,,,0.51,Wunderground v.1.15,2013-01-11 05:32:00,
2013-01-10 23:38:00,44.0,43.2,29.75,SSE,164,0.0,6.0,97,0.00,,,0.51,Wunderground v.1.15,2013-01-11 05:38:00,
2013-01-10 23:44:00,43.9,43.1,29.75,SE,142,2.0,6.0,97,0.00,,,0.51,Wunderground v.1.15,2013-01-11 05:44:00,
2013-01-10 23:50:00,43.8,43.0,29.74,SE,141,4.0,4.0,97,0.00,,,0.51,Wunderground v.1.15,2013-01-11 05:50:00,
2013-01-10 23:56:00,44.1,43.3,29.73,SSE,148,3.0,6.0,97,0.00,,,0.51,Wunderground v.1.15,2013-01-11 05:56:00,